Погода в Нови-Саде

Сербия     45°15′53″N   19°50′12″E
темп.,
°C
ветер,
м/с
пор.,
м/с
влажн.,
%
обл.,
%
осадки,
мм/ч
давл.,
гПа
погр.,
м
29 июня, ср
ср2923:00+26св22425 0.0 101636
02:00+24вюв234518 0.0 101568
05:00+23юв235187 0.0 101458
08:00+27юв363899 0.0 1014294
11:00+33юв5627100 0.0 10131517
14:00+36вюв672236 0.0 10111833
17:00+35юв68215 0.0 10101862
20:00+31юв511293 0.0 1010565
30 июня, чт
чт3023:00+27юв4143332 0.0 1011455
02:00+24юв413425 0.1 1011344
05:00+21ю22632 0.3 101149
08:00+26з23513 0.5 1012318
11:00+32зсз12352 0.0 1012996
14:00+36ссз21260 0.0 10111990
17:00+36с22240 0.0 10102448
20:00+31всв113350 0.0 101020
1 июля, пт
пт123:00+24з3660100 0.1 1012174
02:00+23ю23664 0.1 101266
05:00+22ююз226615 0.0 101334
08:00+27юз11486 0.0 1014307
11:00+34ю013219 0.0 10141041
14:00+37ю1422100 0.0 10122351
17:00+38ююз231898 0.0 10113261
20:00+32сз012977 0.0 101111
2 июля, сб
сб223:00+27юв34405 0.0 101386
02:00+23сз125357 0.1 101569
05:00+18сз467778 0.0 1018275
08:00+21зсз46681 0.0 1020522
11:00+27сз33472 0.0 1020959
14:00+31сз33360 0.0 10191422
17:00+33ссз33330 0.0 10181544
20:00+29зсз11430 0.0 101811
3 июля, вс
вс323:00+26сз12490 0.0 101937
02:00+24з22520 0.0 101928
05:00+22зсз22590 0.0 101846
08:00+26сз22550 0.0 1019358
11:00+31ссз22390 0.0 10191023
14:00+34ссз22310 0.0 10172055
17:00+35ссз33280 0.0 10152036
20:00+31ссз113723 0.0 101511